This is the latest recevied weather packets stored in our database for station/object W7TTE. If no packets are shown the sender has not sent any weather packets the latest 1 day(s).
| Time | Temp. | Humidity | Pressure | Rain* | Wind** | Luminosity | Snow |
|---|---|---|---|---|---|---|---|
| 1778034549 | 22.22° C | 29% | 1013.3 hPa | 0 mm | - | 0 W/m² | - |
| 1778034247 | 22.22° C | 29% | 1013.1 hPa | 0 mm | - | 1 W/m² | - |
| 1778033641 | 22.78° C | 29% | 1012.9 hPa | 0 mm | - | 4 W/m² | - |
| 1778033338 | 22.78° C | 29% | 1012.9 hPa | 0 mm | - | 6 W/m² | - |
| 1778033036 | 22.78° C | 28% | 1013 hPa | 0 mm | - | 9 W/m² | - |
| 1778032733 | 22.78° C | 28% | 1012.6 hPa | 0 mm | - | 12 W/m² | - |
| 1778032431 | 22.78° C | 28% | 1012.6 hPa | 0 mm | - | 15 W/m² | - |
| 1778032127 | 23.33° C | 27% | 1012.6 hPa | 0 mm | - | 18 W/m² | - |
| 1778031520 | 23.33° C | 27% | 1012.7 hPa | 0 mm | - | 23 W/m² | - |
| 1778030612 | 23.89° C | 27% | 1012.6 hPa | 0 mm | - | 44 W/m² | - |
| 1778030309 | 23.89° C | 27% | 1012.5 hPa | 0 mm | - | 50 W/m² | - |
| 1778030005 | 24.44° C | 27% | 1012.4 hPa | 0 mm | - | 52 W/m² | - |
| 1778029703 | 24.44° C | 25% | 1012.4 hPa | 0 mm | - | 59 W/m² | - |
| 1778029401 | 24.44° C | 25% | 1012.5 hPa | 0 mm | - | 63 W/m² | - |
| 1778029097 | 24.44° C | 26% | 1012.2 hPa | 0 mm | - | 75 W/m² | - |
| 1778028794 | 24.44° C | 25% | 1012.3 hPa | 0 mm | - | 75 W/m² | - |
| 1778028490 | 24.44° C | 25% | 1012.4 hPa | 0 mm | - | 89 W/m² | - |
| 1778028188 | 24.44° C | 25% | 1012.1 hPa | 0 mm | - | 102 W/m² | - |
| 1778027884 | 24.44° C | 25% | 1012 hPa | 0 mm | - | 53 W/m² | - |
| 1778027276 | 24.44° C | 25% | 1012.2 hPa | 0 mm | - | 155 W/m² | - |
| 1778026973 | 24.44° C | 26% | 1012.1 hPa | 0 mm | - | 88 W/m² | - |
| 1778026669 | 25° C | 26% | 1012 hPa | 0 mm | - | 65 W/m² | - |
| 1778026367 | 25° C | 26% | 1012 hPa | 0 mm | - | 218 W/m² | - |
| 1778025761 | 24.44° C | 27% | 1012 hPa | 0 mm | - | 244 W/m² | - |
| 1778024246 | 25.56° C | 27% | 1011.9 hPa | 0 mm | - | 321 W/m² | - |
* Rain latest hour (hover to see other rain measurements)
** Current wind speed in m/s (hover to see current wind gust speed)